Regional Weather Roundup
Issued by NWS Charleston, SC

Current Version | Previous Version | Graphics & Text | Print | Product List | Glossary On
Versions: 1 2 3 4 5 6 7 8 9 10 11 12 13 14 15 16 17 18 19 20 21 22 23 24 25 26 27 28 29 30 31 32 33 34 35 36 37 38 39 40 41 42 43 44 45 46 47 48 49 50
000
ASUS42 KCHS 190012
RWRCHS

REGIONAL WEATHER ROUNDUP
NATIONAL WEATHER SERVICE CHARLESTON SC
800 PM EDT WED OCT 18 2017

NOTE: "FAIR" INDICATES FEW OR NO CLOUDS BELOW 12,000 FEET WITH NO
SIGNIFICANT WEATHER AND/OR OBSTRUCTIONS TO VISIBILITY.

NOT ALL STATIONS ARE QUALITY CONTROLLED. USE DATA WITH CAUTION...
ESPECIALLY DEWPOINT OBSERVATIONS.

SCZ027-030-031-034>040-042>050-190100-
...SOUTHEAST SOUTH CAROLINA...

CITY           SKY/WX    TMP DP  RH WIND       PRES   REMARKS
N CHARLESTON   CLEAR     64  58  80 NE7       30.26R
6HR MIN TEMP:  64; 6HR MAX TEMP:  76;

WATERFRONT PRK   N/A     70  61  73 NE8       30.10R
JOHNS ISLAND   FAIR      66  61  82 NE6       30.26R
PINOPOLIS        N/A     70  57  64 NE9       30.18R
MONCKS CORNER  FAIR      59  55  88 CALM      30.27R
SUMMERVILLE    FAIR      61  57  88 CALM      30.28R
BEAUFORT MCAS  CLEAR     65  60  84 NE12      30.25R
6HR MIN TEMP:  65; 6HR MAX TEMP:  77;

BEAUFORT ARPT  FAIR      68  61  77 NE10      30.24S
HILTON HEAD IS CLEAR     70  63  78 E8          N/A
WALTERBORO     CLEAR     61  55  82 N3        30.27S
ALLENDALE      NOT AVBL

...SOUTHERN MIDLANDS AND PEE DEE...

CITY           SKY/WX    TMP DP  RH WIND       PRES   REMARKS
GEORGETOWN     FAIR      63  61  94 CALM      30.27S
KINGSTREE      FAIR      59  54  82 CALM      30.29R
ORANGEBURG     CLEAR     61  45  55 NE3       30.29R
6HR MIN TEMP:  61; 6HR MAX TEMP:  73;

BARNWELL         N/A     61  45  55 CALM      30.28R
AIKEN          FAIR      54  43  66 CALM      30.32S
MANNING        FOG       57  54  88 MISG      30.29R VSB<1/4
COLUMBIA       CLEAR     61  44  53 CALM      30.29R
6HR MIN TEMP:  60; 6HR MAX TEMP:  74;

SUMTER         CLEAR     55  44  66 NE5       30.27R
6HR MIN TEMP:  55; 6HR MAX TEMP:  72;

FLORENCE       CLEAR     56  49  77 N5        30.30R
6HR MIN TEMP:  56; 6HR MAX TEMP:  71;

MYRTLE BEACH   CLEAR     65  57  75 N8        30.29R
N MYRTLE BEACH CLEAR     62  57  83 NE3       30.27S
6HR MIN TEMP:  61; 6HR MAX TEMP:  75;


$$

GAZ063-065-086>088-099>101-113>116-118-119-134>141-150-190100-
...SOUTHEAST GEORGIA...

CITY           SKY/WX    TMP DP  RH WIND       PRES   REMARKS
SAVANNAH ARPT  PTCLDY    68  59  73 NE7       30.24R
6HR MIN TEMP:  68; 6HR MAX TEMP:  77;

HUNTER AAF     CLEAR     68  62  79 NE5       30.21R
6HR MIN TEMP:  68; 6HR MAX TEMP:  76; 6HR PCP: TRACE;

FORT STEWART   CLEAR     64  60  85 NE3       30.22R
6HR MIN TEMP:  64; 6HR MAX TEMP:  77;

STATESBORO     CLEAR     63  53  71 CALM      30.26R
SYLVANIA       CLEAR     61  56  83 NE3       30.27R
CLAXTON        FAIR      63  60  89 CALM      30.25R

...CSRA...CENTRAL AND FAR SOUTHEAST GEORGIA...

CITY           SKY/WX    TMP DP  RH WIND       PRES   REMARKS
THOMSON        CLEAR     57  44  61 CALM      30.33R
AUGUSTA-BUSH   CLEAR     55  46  71 CALM      30.27R
6HR MIN TEMP:  55; 6HR MAX TEMP:  77;

AUGUSTA-DANIEL CLEAR     66  41  40 NE8       30.28S
SWAINSBORO     FAIR      63  46  55 MISG      30.27R
VIDALIA        CLEAR     64  54  68 NE5       30.25R
EASTMAN        FAIR      63  32  31 NE5       30.27R
HAZLEHURST     FAIR      68  43  40 NE3       30.23R
ALMA           CLEAR     64  59  83 CALM      30.22R
6HR MIN TEMP:  64; 6HR MAX TEMP:  79;

WAYCROSS       CLEAR     66  58  75 E5        30.21R
JESUP          NOT AVBL
BAXLEY         FAIR      63  59  88 CALM      30.22R
BRUNSWICK      CLOUDY    70  63  78 NE10G16   30.22R
SAINT SIMONS   CLOUDY    72  66  81 NE14G25   30.20R
6HR MIN TEMP:  72; 6HR MAX TEMP:  75;


$$

SCZ027-028-034-036>038-045-046-048>050-GAZ119-141-190100-
...LAKE AND SUPPLEMENTAL COASTAL OBSERVATIONS...

STATION/POSITION TIME  TEMP    WIND        PRES    WAVE   SWELL
                       AIR SEA DIR/SP/G            HT/PER HT/PER/DIR
                 (UTC) (F)     (DEG/KT/KT) (MB)    (FT/S) (FT/S/D)
WINYAH BAY       NOT AVBL
LAKE MURRAY      2320   65      CALM  /  2 1024.7
ACE BASIN NERRS  2245   69     350/  1     1024.0
FORT PULASKI     2342   71 73   60/ 13/ 18 1024.0R
SAPELO ISLAND    2300   71      50/ 10     1023.0

$$

ANZ835-935-AMZ111-154-330-350-352-354-370-450-454-472-190100-
...C-MAN AND BUOY OBSERVATIONS...

STATION/POSITION TIME  TEMP    WIND        PRES    WAVE   SWELL
                       AIR SEA DIR/SP/G            HT/PER HT/PER/DIR
                 (UTC) (F)     (DEG/KT/KT) (MB)    (FT/S) (FT/S/D)
BUOY 41004       2350   74 80   50/ 21/ 27 1022.6R   8/ 9   3/100/ 9
BUOY 41008       2350   73 78   60/ 23/ 27 1021.7R   7/10   3/130/10
FOLLY BEACH CMAN 2300   70      50/ 15/ 17 1024.8R
CAPERS NEARSHORE 2308   68 75   50/ 16/ 21 1023.6R
FRIPP NEARSHORE  2308   71      60/ 17/ 21   N/A


STATION/POSITION TIME  TEMP    WIND        PRES    WAVE   SWELL
                       AIR SEA DIR/SP/G            HT/PER HT/PER/DIR
                 (UTC) (F)     (DEG/KT/KT) (MB)    (FT/S) (FT/S/D)
5E ST. MARYS GA  2330      78                N/A     7/ 6   2/ 80/11
FRYING PAN BUOY  2350   72 77   30/ 19/ 25 1023.6F   7/ 7   3/120/ 9
BUOY 41025       2350   72 82   30/ 17/ 21 1024.4R   7/ 7   3/120/ 9
CAPE LOOKOUT NC  2300   65      20/ 13/ 17 1025.1R
BUOY 41002       2350   76 80   50/ 21/ 25 1020.4R  10/ 8
BUOY 41010       NOT AVBL
ST AUGUSTINE FL  0000   75 78   20/ 24/ 26 1020.7R


$$




USA.gov is the U.S. government's official web portal to all federal, state and local government web resources and services.